Weather History for Melbourne Airport, VC

Change the Weather History Date:

Thursday, December 26, 2013

  Actual Average Record
Temperature  
Mean Temperature 71 °F -  
Max Temperature 82 °F 76 °F 84 °F (2008)
Min Temperature 60 °F 54 °F 46 °F (2001)
Cooling Degree Days 6    
Growing Degree Days 21 (Base 50)    
Moisture  
Dew Point 45 °F    
Average Humidity 40    
Maximum Humidity 82    
Minimum Humidity 15    
Precipitation  
Precipitation 0.00 in 0.06 in - ()
Sea Level Pressure  
Sea Level Pressure 29.84 in    
Wind  
Wind Speed 14 mph ()    
Max Wind Speed 24 mph    
Max Gust Speed 33 mph    
Visibility 8.0 miles    
Events Rain    
Averages and records for this station are not official NWS values.
T = Trace of Precipitation, MM = Missing Value Source: Averaged Metar Reports

Daily Weather History Graph

Daily Weather History Graph

Search for Another Location

Airport:

Trip Planner

Search our weather history database for the weather conditions in past years. The results will help you decide how hot, cold, wet, or windy it might be!

Date:

Astronomy

Dec. 26, 2013 Rise Set
Actual Time 5:58 AM AEDT 8:44 PM AEDT
Civil Twilight 5:26 AM AEDT 9:15 PM AEDT
Nautical Twilight 4:47 AM AEDT 9:54 PM AEDT
Astronomical Twilight 4:03 AM AEDT 10:38 PM AEDT
Moon 1:02 AM AEDT (12/26) 1:57 PM AEDT (12/26)
Length of Visible Light 15h 48m
Length of Day
14h 45m
Last Quarter, 45% of the Moon is Illuminated
Dec 26
Last Quarter
Jan 1
New
Jan 8
First Quarter
Jan 16
Full
Jan 24
Last Quarter

Hourly Weather History & Observations

Time (AEDT) Temp. Dew Point Humidity Pressure Visibility Wind Dir Wind Speed Gust Speed Precip Events Conditions
12:00 AM 74 °F 37 °F 16% 29.82 in 25 mi North 16.1 mph - -   Partly Cloudy
12:00 AM 73.4 °F 37.4 °F 27% 29.83 in - North 16.1 mph - N/A   Clear
12:30 AM 71.6 °F 35.6 °F 27% 29.83 in - North 18.4 mph - N/A   Clear
1:00 AM 71 °F 34 °F 15% 29.81 in - North 16.1 mph - -  
1:00 AM 71.6 °F 33.8 °F 25% 29.80 in - North 16.1 mph - N/A   Clear
1:30 AM 71.6 °F 32.0 °F 23% 29.80 in - North 17.3 mph - N/A   Clear
2:00 AM 69 °F 34 °F 17% 29.81 in - North 17.3 mph - -  
2:00 AM 68.0 °F 33.8 °F 28% 29.80 in - North 17.3 mph - N/A   Clear
2:30 AM 69.8 °F 30.2 °F 23% 29.80 in - North 15.0 mph - N/A   Clear
3:00 AM 69 °F 32 °F 15% 29.81 in 25 mi North 16.1 mph - -   Partly Cloudy
3:00 AM 69.8 °F 32.0 °F 25% 29.80 in - North 16.1 mph - N/A   Clear
3:30 AM 68.0 °F 33.8 °F 28% 29.80 in - NNW 13.8 mph - N/A   Clear
4:00 AM 65 °F 34 °F 20% 29.82 in - NW 5.8 mph - -  
4:00 AM 64.4 °F 33.8 °F 32% 29.80 in - NW 5.8 mph - N/A   Clear
4:30 AM 64.4 °F 35.6 °F 34% 29.80 in - North 6.9 mph - N/A   Clear
5:00 AM 62 °F 37 °F 27% 29.81 in - North 8.1 mph - -  
5:00 AM 62.6 °F 37.4 °F 39% 29.80 in - North 8.1 mph - N/A   Clear
5:30 AM 62.6 °F 37.4 °F 39% 29.80 in - North 10.4 mph - N/A   Clear
6:00 AM 66 °F 37 °F 23% 29.81 in 25 mi North 10.4 mph - -   Mostly Cloudy
6:00 AM 66.2 °F 37.4 °F 35% 29.80 in - North 10.4 mph - N/A   Clear
6:30 AM 66.2 °F 39.2 °F 37% 29.80 in - North 8.1 mph - N/A   Clear
6:43 AM 68.0 °F 37.4 °F 33% 29.80 in 6.2 mi North 19.6 mph - N/A Rain Light Rain Showers
7:00 AM 68 °F 38 °F 22% 29.81 in - North 11.5 mph - -  
7:00 AM 68.0 °F 37.4 °F 33% 29.80 in - North 11.5 mph - N/A   Clear
7:30 AM 69.8 °F 39.2 °F 33% 29.80 in - North 5.8 mph - N/A   Clear
8:00 AM 72 °F 40 °F 20% 29.81 in - North 18.4 mph - -  
8:00 AM 71.6 °F 39.2 °F 31% 29.80 in - North 18.4 mph - N/A   Clear
8:30 AM 71.6 °F 39.2 °F 31% 29.80 in - North 20.7 mph - N/A   Clear
9:00 AM 72 °F 38 °F 18% 29.82 in 25 mi North 19.6 mph - -   Mostly Cloudy
9:00 AM 71.6 °F 37.4 °F 29% 29.80 in - North 19.6 mph - N/A   Clear
9:30 AM 73.4 °F 37.4 °F 27% 29.83 in - North 24.2 mph - N/A   Clear
9:51 AM 73.4 °F 41.0 °F 31% 29.83 in - North 21.9 mph 33.4 mph N/A   Clear
10:00 AM 74 °F 41 °F 20% 29.82 in - North 21.9 mph - -  
10:00 AM 73.4 °F 41.0 °F 31% 29.83 in - North 21.9 mph - N/A   Clear
10:30 AM 75.2 °F 41.0 °F 29% 29.83 in - North 12.7 mph - N/A   Clear
11:00 AM 75 °F 47 °F 26% 29.84 in - North 13.8 mph - -  
11:00 AM 75.2 °F 46.4 °F 36% 29.83 in 6.2 mi North 13.8 mph - N/A Rain Light Rain Showers
11:30 AM 75.2 °F 44.6 °F 34% 29.86 in - SSW 19.6 mph - N/A   Clear
12:00 PM 75 °F 45 °F 23% 29.86 in 19 mi South 12.7 mph - -   Scattered Clouds
12:00 PM 75.2 °F 44.6 °F 34% 29.86 in - South 12.7 mph - N/A   Clear
12:30 PM 75.2 °F 44.6 °F 34% 29.86 in - South 8.1 mph - N/A   Clear
1:00 PM 76 °F 47 °F 25% 29.85 in - South 6.9 mph - -  
1:00 PM 75.2 °F 46.4 °F 36% 29.86 in - South 6.9 mph - N/A   Clear
1:30 PM 78.8 °F 42.8 °F 28% 29.83 in - SSW 8.1 mph - N/A   Unknown
2:00 PM 80 °F 45 °F 19% 29.83 in - SSE 6.9 mph - -  
2:00 PM 80.6 °F 44.6 °F 28% 29.83 in - SSE 6.9 mph - N/A   Clear
2:30 PM 80.6 °F 44.6 °F 28% 29.80 in - South 6.9 mph - N/A   Clear
3:00 PM 80 °F 44 °F 18% 29.80 in 19 mi SSE 8.1 mph - -   Scattered Clouds
3:00 PM 80.6 °F 44.6 °F 28% 29.80 in - SSE 8.1 mph - N/A   Clear
3:30 PM 82.4 °F 50.0 °F 32% 29.77 in - South 11.5 mph - N/A   Clear
4:00 PM 78 °F 48 °F 25% 29.81 in - South 17.3 mph - -  
4:00 PM 78.8 °F 48.2 °F 34% 29.80 in - South 17.3 mph - N/A   Clear
4:30 PM 77.0 °F 53.6 °F 44% 29.80 in - South 21.9 mph - N/A   Clear
5:00 PM 75 °F 56 °F 41% 29.81 in - South 23.0 mph - -  
5:00 PM 75.2 °F 55.4 °F 50% 29.80 in - South 23.0 mph - N/A   Clear
5:30 PM 73.4 °F 57.2 °F 57% 29.83 in - South 19.6 mph - N/A   Clear
6:00 PM 72 °F 57 °F 49% 29.84 in 11 mi South 17.3 mph - -   Smoke
6:00 PM 71.6 °F 57.2 °F 60% 29.83 in 6.2 mi South 17.3 mph - N/A   Partly Cloudy
6:30 PM 69.8 °F 59.0 °F 68% 29.86 in 6.2 mi South 18.4 mph - N/A   Partly Cloudy
7:00 PM 67 °F 57 °F 63% 29.87 in - South 18.4 mph - -  
7:00 PM 68.0 °F 57.2 °F 68% 29.86 in 6.2 mi South 18.4 mph - N/A   Partly Cloudy
7:30 PM 66.2 °F 55.4 °F 68% 29.89 in 6.2 mi South 18.4 mph - N/A   Partly Cloudy
8:00 PM 65 °F 56 °F 64% 29.90 in - South 15.0 mph - -  
8:00 PM 64.4 °F 55.4 °F 73% 29.89 in 6.2 mi South 15.0 mph - N/A   Partly Cloudy
8:30 PM 64.4 °F 55.4 °F 73% 29.92 in 6.2 mi South 15.0 mph - N/A   Scattered Clouds
9:00 PM 62 °F 56 °F 73% 29.93 in 11 mi South 15.0 mph - -   Haze
9:00 PM 62.6 °F 55.4 °F 77% 29.92 in 6.2 mi South 15.0 mph - N/A   Scattered Clouds
9:30 PM 60.8 °F 55.4 °F 82% 29.95 in 6.2 mi South 15.0 mph - N/A   Mostly Cloudy
9:50 PM 60.8 °F 55.4 °F 82% 29.95 in 6.2 mi South 13.8 mph - N/A   Mostly Cloudy
10:00 PM 62 °F 55 °F 71% 29.95 in - South 13.8 mph - -  
10:00 PM 60.8 °F 55.4 °F 82% 29.95 in 6.2 mi South 13.8 mph - N/A   Mostly Cloudy
10:30 PM 60.8 °F 55.4 °F 82% 29.95 in 6.2 mi South 12.7 mph - N/A   Mostly Cloudy
10:41 PM 60.8 °F 53.6 °F 77% 29.95 in 6.2 mi South 11.5 mph - N/A   Mostly Cloudy
11:00 PM 61 °F 54 °F 72% 29.96 in - South 9.2 mph - -  
11:00 PM 60.8 °F 53.6 °F 77% 29.95 in 6.2 mi South 9.2 mph - N/A   Mostly Cloudy
11:30 PM 60.8 °F 53.6 °F 77% 29.95 in 6.2 mi South 11.5 mph - N/A   Mostly Cloudy